Location: Pedimozza
(42.0500°N, 9.3500°E)
Time: 09:04:03
(UTC+00:00)

ASTRO E2 - Pass Details

Date: 19 August 2019
Orbit: 511 x 517 km, 31.4° (Epoch: 24 September)

Event Time Altitude Azimuth Distance (km) Brightness Sun altitude
Rises 19:52:25 0° 244° (WSW) 2,604 6.7 -16.5°
Reaches altitude 10° 19:55:12 10° 224° (SW) 1,719 5.4 -17.0°
Enters shadow 19:57:31 17° 188° (S) 1,327 4.5 -17.3°
